PAKSAT-1R

Last updated on Tue Oct 15 2024 00:02:39 GMT+0000 (Coordinated Universal Time)

1 37779U 11042A 24288.48651819 .00000152 00000+0 00000+0 0 9993 2 37779 0.0368 70.8797 0000630 71.2899 94.4805 1.00268050 48357
UTC large
Height (km)
Speed (km/s)
/
Latitude / Longitude
Inclination (degrees)
Orbital Period (minutes)
Azimuth
Elevation
Range (km)
Doppler Factor

Next 0 passes for location: London (51.5072 / 0.1276)

Sorry there are no passes over London.